TimeMDT,TemperatureF,Dew PointF,Humidity,Sea Level PressureIn,VisibilityMPH,Wind Direction,Wind SpeedMPH,Gust SpeedMPH,PrecipitationIn,Events,Conditions,WindDirDegrees,DateUTC
12:53 AM,82.0,55.9,41,29.91,10.0,South,10.4,-,N/A,,Clear,180,2013-07-10 06:53:00
1:53 AM,80.1,57.0,45,29.91,10.0,South,9.2,-,N/A,,Clear,170,2013-07-10 07:53:00
2:53 AM,77.0,57.9,52,29.93,10.0,South,8.1,-,N/A,,Clear,180,2013-07-10 08:53:00
3:53 AM,75.9,57.9,54,29.94,10.0,SW,6.9,-,N/A,,Clear,220,2013-07-10 09:53:00
4:53 AM,75.9,57.9,54,29.95,10.0,Calm,Calm,-,N/A,,Scattered Clouds,0,2013-07-10 10:53:00
5:53 AM,75.9,57.9,54,29.95,10.0,SSW,5.8,-,N/A,,Clear,210,2013-07-10 11:53:00
6:53 AM,77.0,59.0,54,29.94,10.0,SSW,11.5,-,N/A,,Clear,210,2013-07-10 12:53:00
7:53 AM,80.1,60.1,50,29.97,10.0,WSW,10.4,-,N/A,,Clear,240,2013-07-10 13:53:00
8:53 AM,82.9,61.0,47,29.98,10.0,SW,8.1,-,N/A,,Clear,220,2013-07-10 14:53:00
9:53 AM,86.0,60.1,41,29.97,10.0,Calm,Calm,-,N/A,,Clear,0,2013-07-10 15:53:00
10:53 AM,89.1,59.0,36,29.96,10.0,ENE,3.5,-,N/A,,Clear,60,2013-07-10 16:53:00
11:53 AM,91.9,57.0,31,29.94,10.0,SSE,9.2,-,N/A,,Clear,160,2013-07-10 17:53:00
12:53 PM,93.0,55.9,29,29.91,10.0,SE,4.6,17.3,N/A,,Clear,130,2013-07-10 18:53:00
1:53 PM,96.1,55.0,25,29.88,10.0,ESE,12.7,17.3,N/A,,Partly Cloudy,120,2013-07-10 19:53:00
2:53 PM,98.1,54.0,23,29.87,10.0,SSE,9.2,-,N/A,,Mostly Cloudy,150,2013-07-10 20:53:00
3:53 PM,97.0,52.0,22,29.84,10.0,Variable,3.5,-,N/A,,Partly Cloudy,0,2013-07-10 21:53:00
4:53 PM,98.1,50.0,20,29.81,10.0,South,13.8,17.3,N/A,,Scattered Clouds,170,2013-07-10 22:53:00
5:53 PM,96.1,48.0,19,29.81,10.0,South,11.5,-,N/A,,Clear,170,2013-07-10 23:53:00
6:53 PM,93.9,50.0,22,29.80,10.0,South,11.5,-,N/A,,Clear,170,2013-07-11 00:53:00
7:53 PM,91.0,52.0,26,29.82,10.0,SSE,8.1,-,N/A,,Clear,150,2013-07-11 01:53:00
8:53 PM,87.1,52.0,30,29.84,10.0,SSE,6.9,-,N/A,,Clear,150,2013-07-11 02:53:00
9:53 PM,84.0,52.0,33,29.86,10.0,ESE,4.6,-,N/A,,Clear,120,2013-07-11 03:53:00
10:53 PM,81.0,53.1,38,29.87,10.0,East,5.8,-,N/A,,Scattered Clouds,80,2013-07-11 04:53:00
11:53 PM,82.0,54.0,38,29.88,10.0,Calm,Calm,-,N/A,,Mostly Cloudy,0,2013-07-11 05:53:00